Location: Brede
(50.9167°N, 0.6000°E)
Time: 16:06:19
(UTC+00:00)

USA 267 - Pass Details

Date: 08 August 2020
Orbit: 1101 x 1106 km, 123.0° (Epoch: 22 September)

Event Time Altitude Azimuth Distance (km) Brightness Sun altitude
Rises 03:14:20 0° 135° (SE) 3,909 6.2 -11.1°
Reaches altitude 10° 03:16:51 10° 139° (SE) 2,954 5.5 -10.8°
Maximum altitude 03:23:17 60° 219° (SW) 1,253 3.3 -10.1°
Drops below altitude 10° 03:29:46 10° 299° (WNW) 2,969 5.3 -9.3°
Sets 03:32:18 0° 303° (WNW) 3,930 6.0 -9.0°
